Simultaneous Nadir Overpasses (SNOs) Predictions

Prediction of SNOs between GOES-17 and METOP-B Satellite Orbit:

Table of predicted SNOs for the next 14.0 days since TLE Epoch: 6/4/2022
Index Date Time (GOES-17) GOES-17 Lat,Lon METOP-B Lat,Lon Distance(km) Time Diff (sec)
1 06/04/2022 18:28:23 0.05,-137.20 -0.62,-134.33 327.40 80
2 06/06/2022 06:44:45 -0.04,-137.20 -0.40,-138.93 196.85 80
3 06/07/2022 06:26:45 -0.04,-137.20 0.68,-133.93 371.97 80
4 06/08/2022 18:42:57 0.04,-137.19 0.30,-138.50 148.65 80
5 06/09/2022 18:24:58 0.04,-137.19 -0.79,-133.50 419.86 80
6 06/11/2022 06:41:19 -0.04,-137.18 -0.23,-138.10 105.39 80
7 06/12/2022 06:23:20 -0.04,-137.17 0.86,-133.11 462.47 80
8 06/13/2022 18:39:32 0.03,-137.14 0.12,-137.68 59.99 80
9 06/16/2022 06:37:54 -0.02,-137.10 -0.03,-137.28 20.12 80
